Regional Weather Roundup
Issued by NWS Charleston, WV

Home | Current Version | Previous Version | Graphics & Text | Print | Product List | Glossary On
Versions: 1 2 3 4 5 6 7 8 9 10 11 12 13 14 15 16 17 18 19 20 21 22 23 24 25 26 27 28 29 30 31 32 33 34 35 36 37 38 39 40 41 42 43 44 45
000
ASUS41 KRLX 281610
RWRRLX
West Virginia Regional Weather Roundup
National Weather Service Charleston WV
1100 AM EST TUE FEB 28 2017

Note: "fair" indicates few or no clouds below 12,000 feet with no
significant weather and/or obstructions to visibility.

WVZ003-281700-
Northern Panhandle of West Virginia

CITY           SKY/WX    TMP DP  RH WIND       PRES   REMARKS
WHEELING       CLOUDY    52  40  63 SE9       30.11F
$$

WVZ009-281700-
Northwest West Virginia

CITY           SKY/WX    TMP DP  RH WIND       PRES   REMARKS
PARKERSBURG    LGT RAIN  47  43  86 S6        30.17F FOG
$$

WVZ006-281700-
Western West Virginia

CITY           SKY/WX    TMP DP  RH WIND       PRES   REMARKS
HUNTINGTON     LGT RAIN  45  43  93 CALM      30.13R FOG
$$

WVZ015-281700-
West Central West Virginia

CITY           SKY/WX    TMP DP  RH WIND       PRES   REMARKS
CHARLESTON     TSTM      45  42  89 E6        30.13F
$$

WVZ022-031-281700-
North Central West Virginia

CITY           SKY/WX    TMP DP  RH WIND       PRES   REMARKS
CLARKSBURG     LGT RAIN  56  40  55 SE5       30.16F
MORGANTOWN     CLOUDY    56  40  55 S5        30.18F
$$

WVZ025-035-042-045-281700-
Southern West Virginia

CITY           SKY/WX    TMP DP  RH WIND       PRES   REMARKS
BECKLEY        CLOUDY    54  37  52 SE8       30.20F
LOGAN          CLOUDY    57  43  58 CALM      30.14F
BLUEFIELD      CLOUDY    54  33  45 VRB3      30.22F
LEWISBURG      CLOUDY    46  34  62 CALM      30.24F
$$

WVZ047-281700-
Northern Mountains of West Virginia

CITY           SKY/WX    TMP DP  RH WIND       PRES   REMARKS
ELKINS         CLOUDY    51  36  56 CALM      30.21F
$$

WVZ052-281700-
Eastern Panhandle of West Virginia

CITY           SKY/WX    TMP DP  RH WIND       PRES   REMARKS
MARTINSBURG    PTSUNNY   57  31  37 S3        30.24F
PETERSBURG     PTSUNNY   56  37  48 CALM      30.22F
$$




USA.gov is the U.S. government's official web portal to all federal, state and local government web resources and services.